Showing default

QPS-SAR-8 AMATERU-IV, 60542

Orbit data source: Space-Track

QPS-SAR-8 AMATERU-IV, 60542 is a payload satellite owned by QPS Labs (JP) in SSO that was launched on Fri, 16 Aug 2024 UTC via an FALCON 9 launch vehicle from the Air Force Western Test Range (AFWTR). Payload-class satellites include a variety of spacecraft equipped with specific instruments for various scientific and technological missions. These include communications satellites like Starlink; space stations such as the ISS; scientific satellites like the Hubble; Earth observation satellites from companies like Planet Labs, Umbra, and HawkEye 360; GPS; miniature CubeSats for education and research; and military/defense satellites.

Loading next visibility...
Identifier
60542, 2024-149CC
Orbit
SSO
Country
Flag of JPJP / JPN
Related business
Manufacturer
QPS Labs
Mission
Operational Commercial Radar Imaging
Bus & Motor
QSAT, Unknown motor
Mass
~120 kg wet, ~100 kg dry
Launch date (UTC)
2024-08-16 (1 year ago)
Launch vehicle
FALCON 9
Launch site
Air Force Western Test Range (AFWTR)
Object type
Payload
Rocket body
Debris
Shape & HBR
Hex Cyl + 2 Pan + 1 Dish, 1.8 m
Radar Cross Section
1.179 m², Large (>1 m²)

Expand to show TLE details & history
Last TLE update: 6 hours ago

TLE from 6 hours ago
0 QPS-SAR-8 AMATERU-IV
1 60542U 24149CC  25312.19522608  .00009234  00000-0  72663-3 0  9998
2 60542  97.6945  28.4410 0008393 142.1249 218.0567 15.01021594 67082
Epoch: 2025-11-08T04:41Z
TLE epoch observation values (Epoch: 2025-11-08T04:41:07.533Z)
Latitude
-0°
Longitude
-89.46871°
Altitude
571.392 km
Speed
7.573 km/s
True Right ascension
01h 53m 45s
True Declination
0° 00' 00"
Sunlit
Object was in full shadow at epoch
Visualization orbit readout
Latitude
Unknown
Longitude
Unknown
Altitude
Unknown
Speed
Unknown
Apparent Right ascension
Unknown
Apparent Declination
Unknown
Sunlit
N/A
Visualization observer readout
Local Sidereal Time
06:27:12
Azimuth
Unknown
Elevation
Unknown
Doppler factor
Unknown
Orbital elements
Apogee altitude
566.572 km
Perigee altitude
554.925 km
Semi-major axis
6,938.885 km
Eccentricity
0.00084
Inclination
97.6945°
RAAN
28.441°
Arg. of periapsis
142.1249°
True anomaly
217.99746°
Mean anomaly
218.0567°
Eccentric anomaly
218.02708°
Mean motion
3.75499 °/min
Orbital period
95.87 mins
BSTAR
0.00072663
Loading maneuver chart data...
Computing Atmospheric mass density...
Loading historical data...
Loading historical data...
Loading historical data...
Loading historical data...
Loading historical data...
Loading historical data...
Loading historical data...

Documentation

Showing up to 5 results
|